Minneapolis Crystal, MN

3:30 AM CST on November 19, 2017 (GMT -0600)
Crystal

Weather History for KMIC - February, 2013

Change the Weather History Date:

Wednesday, February 20, 2013

  Actual Average Record
Temperature  
Mean Temperature 4 °F -  
Max Temperature 16 °F 29 °F 68 °F (2017)
Min Temperature -7 °F 14 °F -13 °F (2008)
Degree Days  
Heating Degree Days 60    
Moisture  
Dew Point -5 °F    
Average Humidity 64    
Maximum Humidity 79    
Minimum Humidity 49    
Precipitation  
Precipitation 0.00 in - - ()
Sea Level Pressure  
Sea Level Pressure 30.48 in    
Wind  
Wind Speed 4 mph (NNW)    
Max Wind Speed 7 mph    
Max Gust Speed -    
Visibility 10 miles    
Events Snow    
Averages and records for this station are not official NWS values.
T = Trace of Precipitation, MM = Missing Value Source: NWS Daily Summary

Daily Weather History Graph

Daily Weather History Graph

Search for Another Location

Airport or City:

Trip Planner

Search our weather history database for the weather conditions in past years. The results will help you decide how hot, cold, wet, or windy it might be!

Date:

Astronomy

Feb. 20, 2013 Rise Set
Actual Time 7:06 AM CST 5:48 PM CST
Civil Twilight 6:36 AM CST 6:18 PM CST
Nautical Twilight 6:02 AM CST 6:52 PM CST
Astronomical Twilight 5:28 AM CST 7:26 PM CST
Moon 1:02 PM CST (2/20) 3:34 AM CST (2/20)
Length of Visible Light 11h 42m
Length of Day
10h 42m
Waxing Gibbous, 76% of the Moon is Illuminated
Feb 20
Waxing Gibbous
Feb 25
Full
Mar 4
Last Quarter
Mar 11
New
Mar 19
First Quarter

Hourly Weather History & Observations

Time (CST) Temp. Windchill Dew Point Humidity Pressure Visibility Wind Dir Wind Speed Gust Speed Precip Events Conditions
12:53 AM -2.0 °F -15.4 °F -9.9 °F 69% 30.44 in 10.0 mi WNW 6.9 mph - N/A   Clear
1:53 AM -2.9 °F -13.3 °F -11.0 °F 68% 30.45 in 10.0 mi NW 4.6 mph - N/A   Clear
2:53 AM -2.9 °F -13.3 °F -11.0 °F 68% 30.47 in 10.0 mi WNW 4.6 mph - N/A   Clear
3:53 AM -4.0 °F -12.4 °F -11.0 °F 72% 30.48 in 10.0 mi NW 3.5 mph - N/A   Clear
4:53 AM -4.0 °F -12.4 °F -11.0 °F 72% 30.49 in 10.0 mi West 3.5 mph - N/A   Clear
5:53 AM -5.1 °F -13.6 °F -11.0 °F 76% 30.49 in 10.0 mi NW 3.5 mph - N/A   Clear
6:53 AM -7.1 °F -18.1 °F -11.9 °F 79% 30.51 in 10.0 mi WNW 4.6 mph - N/A   Clear
7:53 AM -4.0 °F -12.4 °F -9.0 °F 79% 30.52 in 10.0 mi NNW 3.5 mph - N/A   Clear
8:53 AM -0.9 °F -11.0 °F -9.0 °F 69% 30.51 in 10.0 mi Variable 4.6 mph - N/A   Clear
9:53 AM 1.9 °F -9.2 °F -7.1 °F 66% 30.51 in 10.0 mi ENE 5.8 mph - N/A   Clear
10:53 AM 5.0 °F - -5.1 °F 63% 30.51 in 10.0 mi Calm Calm - 0.00 in Snow Light Snow
11:53 AM 7.0 °F - -4.0 °F 61% 30.51 in 10.0 mi Calm Calm - 0.00 in   Clear
12:53 PM 10.9 °F 4.7 °F -2.9 °F 54% 30.50 in 10.0 mi NNW 3.5 mph - 0.00 in   Clear
1:53 PM 12.9 °F - -2.0 °F 51% 30.50 in 10.0 mi Calm Calm - 0.00 in   Clear
2:53 PM 15.1 °F 7.7 °F -0.0 °F 51% 30.49 in 10.0 mi North 4.6 mph - N/A   Clear
3:53 PM 16.0 °F 8.8 °F -0.0 °F 49% 30.48 in 10.0 mi NNW 4.6 mph - N/A   Clear
4:53 PM 16.0 °F 7.4 °F -0.0 °F 49% 30.47 in 10.0 mi ENE 5.8 mph - N/A   Clear
5:53 PM 14.0 °F 5.1 °F -0.0 °F 54% 30.46 in 10.0 mi NE 5.8 mph - N/A   Clear
6:53 PM 12.9 °F 6.9 °F -0.0 °F 56% 30.46 in 10.0 mi NE 3.5 mph - N/A   Clear
7:53 PM 10.9 °F - -0.0 °F 61% 30.45 in 10.0 mi Calm Calm - N/A   Clear
9:53 PM 9.0 °F 2.4 °F 1.0 °F 70% 30.45 in 10.0 mi NNE 3.5 mph - N/A   Clear
10:53 PM 6.1 °F - -0.9 °F 73% 30.45 in 10.0 mi Calm Calm - N/A   Clear
11:53 PM 8.1 °F - -0.0 °F 70% 30.45 in 10.0 mi Calm Calm - N/A   Clear